Вернуться в каталог

STARLINK-6281

АктивенСвязьVLEO
NORAD 56410·PAYLOAD·🇺🇸 United States

Запущен May 4, 2023 с Cape Canaveral Space Force Station

Loading…

Ближайшие Пролёты (ближайшие 24 часа)

TLE

СвежийSource: CelesTrak SupGP

Эпоха: Sep 15, 2026, 03:04 UTC

1 56410C 23061AN  26258.12826389  .00001698  00000+0  61524-4 0  2583
2 56410  43.0028 196.7878 0000941 265.5272  14.6553 15.27566767    11

Отслеживайте STARLINK-6281 в реальном времени с AllMySat

Download on the App Store